Location: Doubravka
(49.2829°N, 14.3636°E)
Time: 08:15:33
(UTC+00:00)

Daily predictions for brighter satellites

Satellite Brightness Start Highest point End
(mag) Time Altitude Azimuth Time Altitude Azimuth Time Altitude Azimuth
NOSS 3-2 (C) 4.2 19:14:06 10° NW 19:21:32 88° NE 19:30:07 10° SE
ARGOS Delta rocket 4.3 19:20:41 10° NNE 19:26:04 56° E 19:31:26 10° S
H-2A R/B 2.0 19:23:17 10° NNE 19:27:24 87° WNW 19:31:30 10° SSW
SPOT 5 4.1 19:24:43 10° SE 19:29:25 33° ENE 19:34:01 10° N
CZ-4B R/B 1.2 19:26:49 10° NNE 19:30:03 69° ESE 19:33:14 10° S
ATLAS 3B R/B 4.4 19:24:43 10° NW 19:30:49 29° NNE 19:37:09 10° ENE
Cosmos 1536 3.8 19:27:31 10° N 19:31:09 32° ENE 19:34:47 10° SE
Cosmos 389 Rocket 4.0 19:30:35 10° NNE 19:33:26 23° ENE 19:36:18 10° ESE
Cosmos 968 Rocket 3.6 19:31:23 10° S 19:36:24 53° ESE 19:41:23 10° NNE
Helios 1A Rocket 3.7 19:33:07 10° SE 19:36:47 36° ENE 19:40:29 10° N
Cosmos 1328 Rocket 3.7 19:33:09 10° S 19:37:20 53° E 19:41:34 10° NNE
ERS-1 Rocket 4.0 19:34:18 10° SE 19:38:46 33° ENE 19:43:16 10° N
Cosmos 2263 Rocket 3.8 19:37:22 10° N 19:41:52 24° NE 19:46:20 10° E
USA 238 DEB 4.1 19:34:45 10° NW 19:42:00 77° SW 19:49:39 10° SSE
USA 238 4.1 19:34:52 10° NW 19:42:07 77° SW 19:49:46 10° SSE
Cosmos 405 3.1 19:38:57 10° N 19:42:19 55° ENE 19:45:40 10° SSE
BREEZE-M DEB (TANK) 1.3 19:43:20 10° W 19:45:37 84° N 19:48:21 10° E
CENTAUR R/B 3.8 19:37:48 10° NW 19:45:47 57° WSW 19:54:32 10° SSE
Cosmos 1743 3.4 19:43:46 10° N 19:47:22 39° ENE 19:50:38 12° SE
Cosmos 1544 4.1 19:45:15 10° NNW 19:48:38 42° W 19:51:58 10° SSW
ISS -3.1 19:46:20 10° W 19:49:39 56° N 19:52:58 10° ENE
Cosmos 2233 Rocket 4.4 19:44:07 10° SSW 19:50:25 72° WNW 19:56:46 10° N
Cosmos 2227 Rocket 2.3 19:45:33 10° NNW 19:51:16 81° ENE 19:56:42 11° SSE
Ariane Rocket 3.2 19:48:03 10° S 19:53:07 72° WSW 19:58:13 10° NNW
Cosmos 1933 Rocket 4.1 19:48:57 10° N 19:53:15 44° ENE 19:57:05 12° SE
SL-4 R/B 2.2 19:49:34 10° WNW 19:54:12 87° NNE 19:58:30 10° ESE
Terra 2.8 19:51:03 11° SE 19:55:06 34° ENE 19:59:25 10° N
SPOT 3 Rocket 3.6 19:50:06 10° SSE 19:55:14 79° ENE 20:00:25 10° NNW
Cosmos 1666 Rocket 4.2 19:51:05 10° NNW 19:55:23 57° W 19:59:42 10° S
Resurs 01 Rocket 2.4 19:52:17 10° S 19:56:32 49° W 20:00:51 10° NNW
EXPRESS MD2 3.5 19:55:03 10° WNW 20:01:15 70° SSW 20:04:03 14° ESE
Cosmos 1656 3.7 19:58:22 10° SSW 20:03:57 90° WNW 20:09:31 10° NNE
BREEZE M DEB (TANK) 3.4 20:01:20 10° W 20:04:51 76° SSW 20:16:53 10° ESE
Meteor 1-10 Rocket 4.2 19:59:54 10° S 20:05:27 88° WNW 20:11:06 10° NNE
Genesis I 3.6 20:01:40 10° SW 20:05:41 70° NW 20:09:47 10° NE
Cosmos 1980 Rocket 3.2 20:01:44 11° SSE 20:05:58 26° ESE 20:10:35 10° NE
Cosmos 1340 3.0 20:03:27 12° SSE 20:06:45 43° E 20:10:20 10° NNE
Cosmos 1633 Rocket 3.8 20:04:00 10° NNW 20:08:17 51° W 20:12:30 10° S
Cosmos 1464 Rocket 4.0 20:05:28 10° S 20:11:36 65° E 20:17:42 10° NNE
Cosmos 2360 4.4 20:07:42 10° S 20:13:11 52° ESE 20:18:42 10° NE
Cosmos 1151 Rocket 4.2 20:09:31 10° SSW 20:13:37 43° WNW 20:17:43 10° N
CZ-2C R/B 4.3 20:09:50 10° NNE 20:14:21 42° E 20:18:11 14° SSE
Cosmos 1470 Rocket 3.7 20:10:14 10° NNW 20:14:34 73° W 20:18:43 11° S
BREEZE-M DEB (TANK) 4.0 20:11:55 10° WSW 20:15:39 86° SSE 20:29:16 10° E
Meteor 1-27 Rocket 3.8 20:13:42 10° S 20:19:25 78° E 20:25:18 10° NNE
Cosmos 2228 Rocket 4.2 20:18:18 17° SE 20:20:58 29° E 20:24:55 10° NNE
SJ 16-02 2.7 20:19:14 17° SE 20:21:04 22° E 20:24:28 10° NE
Cosmos 1315 Rocket 4.5 20:17:53 10° NNW 20:21:31 31° W 20:25:07 10° SSW
USA 215 4.0 20:17:52 10° ENE 20:23:21 28° SE 20:28:48 10° S
Cosmos 1486 Rocket 4.0 20:18:39 10° S 20:23:54 65° ESE 20:29:09 10° NNE
Meteor 1-11 Rocket 4.3 20:20:05 10° NNW 20:25:59 63° W 20:31:51 10° S
Cosmos 1092 Rocket 4.5 20:20:24 10° N 20:26:22 46° ENE 20:30:46 18° SE
ASTRO F (AKARI) 4.1 20:24:58 23° SSE 20:26:43 73° ENE 20:29:50 10° N
Cosmos 1697 Rocket 2.7 20:21:13 10° SSW 20:26:51 69° ESE 20:32:30 10° NNE
Spot 2 Rocket 3.5 20:22:55 15° SSE 20:27:11 86° WSW 20:32:16 10° NNW
Timation 2 Rocket 4.2 20:21:51 10° NNW 20:28:20 69° ENE 20:33:34 18° SE
Cosmos 2297 Rocket 3.3 20:23:34 10° NW 20:28:46 39° WSW 20:33:57 10° S
Cosmos 1809 Rocket 4.4 20:24:56 10° N 20:31:06 79° E 20:36:02 17° SSE
Cosmos 1515 Rocket 3.6 20:27:12 10° SSW 20:31:33 80° W 20:35:58 10° N
Nadezhda 4 Rocket 4.0 20:26:40 10° N 20:32:59 83° E 20:38:02 16° SSE
Cosmos 773 Rocket 4.4 20:28:06 10° NNW 20:33:16 54° ENE 20:36:50 19° SE
Meteor 2-9 Rocket 4.4 20:29:30 10° N 20:35:21 68° ENE 20:39:28 19° SSE
BREEZE-M DEB (TANK) 1.5 20:33:26 10° W 20:35:50 90° SSE 20:37:56 12° E
ARIANE 5 R/B 2.7 20:36:20 21° SSE 20:39:16 69° ENE 20:43:47 10° N
Cosmos 1869 Rocket 3.7 20:37:51 10° N 20:42:20 67° ENE 20:45:03 23° SSE
ATLAS 2AS CENTAUR R/B 3.4 20:40:06 11° S 20:46:51 39° ESE 20:53:44 10° NE
SL-16 R/B 3.8 20:45:49 15° ESE 20:47:04 16° E 20:50:17 10° ENE
NOSS 3-4 (A) 3.3 20:45:20 10° SW 20:51:04 89° NW 20:57:22 10° NE
NOSS 3-4 (C) 3.3 20:45:23 10° SW 20:51:09 89° WNW 20:57:27 10° NE
Cosmos 1503 Rocket 4.0 20:47:24 13° S 20:52:08 68° ESE 20:57:26 10° NNE
SAR-Lupe-1 4.4 20:49:05 10° NNE 20:52:35 47° E 20:53:55 30° SSE
Cosmos 44 Rocket 4.2 20:49:01 10° NNW 20:53:29 39° NE 20:56:57 15° ESE
ATLAS CENTAUR R/B 4.4 20:52:26 10° NNW 20:55:33 16° NNE 20:58:39 10° ENE
Aureole 1 Rocket 2.6 20:52:59 10° SSW 20:56:17 64° WNW 20:59:17 10° NNE
Cosmos 2026 Rocket 4.1 20:52:30 10° N 20:58:37 66° ENE 21:02:33 23° SSE
Cosmos 2219 4.3 20:54:44 10° NW 20:59:51 36° WSW 21:03:54 15° SSW
USA 267 3.6 20:54:04 10° ESE 21:00:31 64° NNE 21:07:00 10° WNW
Cosmos 921 Rocket 3.3 20:56:25 10° NNW 21:00:55 67° WSW 21:03:26 25° S
Cosmos 1378 3.4 20:59:52 33° SE 21:01:05 47° E 21:04:38 10° NNE
Cosmos 1346 Rocket 3.9 21:00:20 26° ESE 21:01:22 29° E 21:04:54 10° NNE
RESURS DK-1 3.2 21:00:59 28° SE 21:01:45 30° ESE 21:05:24 10° NE
Cosmos 2278 4.1 21:00:40 23° S 21:03:53 45° ESE 21:09:16 10° NE
Cosmos 482 Debris 4.1 21:01:19 10° WNW 21:04:25 84° NNE 21:07:48 18° ESE
SPOT 5 4.0 21:03:09 15° SSW 21:07:20 43° W 21:12:20 10° NNW
Cosmos 389 Rocket 4.2 21:04:53 10° NW 21:07:51 26° W 21:10:02 14° SW
Cosmos 1627 Rocket 4.5 21:02:57 10° N 21:09:10 80° E 21:13:05 25° SSE
Cosmos 2082 4.1 21:04:56 10° NW 21:10:26 56° WSW 21:13:46 23° S
Cosmos 1707 Rocket 3.9 21:08:54 30° SSE 21:10:42 48° E 21:14:59 10° NNE
Cosmos 2034 Rocket 4.3 21:05:04 11° SSW 21:11:09 70° WNW 21:17:31 10° N
SL-24 R/B - RUBIN 2 4.3 21:07:24 10° NNW 21:11:38 47° NE 21:14:22 21° ESE
Cosmos 1184 Rocket 4.3 21:09:25 13° SW 21:11:47 31° WNW 21:14:32 10° N
Cosmos 2292 Rocket 2.7 21:12:52 10° NNW 21:16:12 75° W 21:16:59 46° S
ERS-1 Rocket 4.0 21:13:55 16° SSW 21:17:30 38° W 21:22:13 10° NNW
Okean 1 3.8 21:14:48 19° SSW 21:17:31 57° WNW 21:21:31 10° N
Cosmos 2360 Rocket 4.1 21:18:39 12° ESE 21:19:28 13° E 21:21:52 10° ENE
Geosat 4.3 21:17:27 26° S 21:20:06 56° WSW 21:25:04 10° NW
Cosmos 158 Rocket 3.9 21:16:45 10° NNW 21:21:51 78° ENE 21:24:25 30° SSE
Meteor 1-19 Rocket 4.4 21:17:59 15° SSW 21:22:32 68° WNW 21:27:57 10° N
ATLAS 3B R/B 3.3 21:15:46 10° NW 21:22:59 61° NE 21:29:10 16° ESE
Cosmos 2263 Rocket 2.1 21:20:50 10° NNW 21:26:28 79° WSW 21:29:18 30° SSE
ISS -3.7 21:23:17 10° WNW 21:26:39 75° NNE 21:28:01 33° E
Cosmos 2344 3.5 21:23:14 10° SW 21:30:40 84° NW 21:38:35 10° NE
Terra 3.1 21:29:55 18° SSW 21:32:51 33° W 21:37:11 10° NNW
SL-4 R/B 3.0 21:29:30 10° W 21:33:27 31° SW 21:34:00 30° SSW
Cosmos 2227 Rocket 4.2 21:30:51 10° WNW 21:34:37 18° W 21:38:22 10° SW
Spot 4 4.3 21:32:31 29° SE 21:34:40 50° ENE 21:39:19 10° N
Cosmos 1441 Rocket 4.0 21:34:50 33° ESE 21:35:14 34° E 21:38:39 10° NNE
Cosmos 1975 3.1 21:31:39 10° NNW 21:35:41 60° W 21:37:13 34° SSW
ALOS 2 3.7 21:37:55 24° ESE 21:39:43 34° ENE 21:43:42 10° N
Meteor 2-4 Rocket 3.8 21:37:44 25° SSW 21:41:20 86° WNW 21:47:04 10° NNE
Cosmos 1733 Rocket 3.0 21:37:39 10° N 21:42:07 87° W 21:43:44 39° S
Cosmos 2279 Rocket 4.0 21:39:47 29° S 21:43:02 70° E 21:49:14 10° NNE
GRACE-FO 1 4.4 21:41:27 10° N 21:45:04 83° E 21:45:48 55° S
GRACE-FO 2 4.4 21:41:52 10° N 21:45:30 84° E 21:46:14 55° S
Cosmos 2333 Rocket 4.2 21:44:57 11° ESE 21:45:50 12° E 21:47:41 10° ENE
Cosmos 2369 4.4 21:41:39 10° SW 21:47:10 54° NW 21:52:45 10° NNE
Cosmos 1908 Rocket 4.3 21:44:27 10° N 21:48:36 41° ENE 21:49:57 32° ESE
Cosmos 1980 Rocket 2.7 21:44:02 10° SW 21:49:35 59° WNW 21:55:13 10° NNE
Meteor 2-8 Rocket 4.5 21:47:02 25° SSW 21:50:51 79° W 21:56:59 10° N
Cosmos 1862 Rocket 3.5 21:51:03 41° S 21:52:34 81° E 21:57:05 10° NNE
Meteor 2-10 4.4 21:48:51 10° N 21:54:09 56° ENE 21:56:21 32° SE
Cosmos 2322 Rocket 2.9 21:53:11 31° SE 21:54:40 37° ESE 21:59:46 10° NE
Cosmos 1805 3.3 21:50:48 10° N 21:54:41 64° ENE 21:55:31 49° SE
ERS-2 3.2 21:55:06 10° NE 21:58:20 30° E 21:58:20 30° E
Cosmos 2180 Rocket 4.5 21:55:49 32° S 21:58:45 70° E 22:04:51 10° NNE
SJ 16-02 2.3 21:56:08 16° SW 21:59:21 44° WNW 22:03:34 10° N
H-2A R/B 3.8 21:57:01 10° NNE 22:00:59 46° E 22:01:37 42° SE
Cosmos 1766 4.0 21:58:29 10° N 22:02:13 41° ENE 22:03:05 36° ESE
NOSS 2-1 (C) 3.8 22:03:35 33° E 22:03:35 33° E 22:05:49 10° NE
NOSS 2-1 (D) 3.7 22:05:14 35° E 22:05:14 35° E 22:07:30 10° NE
Cosmos 1777 Rocket 4.4 22:01:35 19° SW 22:05:18 61° WNW 22:10:31 10° NNE
Meteor 1-12 Rocket 4.4 22:00:30 10° N 22:06:30 69° ENE 22:09:11 34° SSE
USA 215 3.2 22:00:24 10° ENE 22:07:00 81° SE 22:13:34 10° SW
Cosmos 1844 Rocket 3.1 22:02:49 10° NNW 22:08:21 55° NE 22:11:23 26° ESE
Cosmos 1356 3.4 22:09:53 61° E 22:09:53 61° E 22:13:06 10° NNE
CZ-4C R/B 4.1 22:03:42 10° NW 22:09:52 38° NNE 22:17:10 10° E
Iridium 2 4.1 22:06:23 10° NNW 22:10:03 52° W 22:10:50 43° SW
Cosmos 2227 4.5 22:04:30 10° NW 22:10:08 57° WSW 22:12:24 35° S
Cosmos 1844 4.3 22:09:56 10° NNW 22:15:39 54° NE 22:19:02 24° ESE
Meteor 1-4 Rocket 2.4 22:12:42 10° NNW 22:16:08 70° W 22:16:23 66° SW
Meteor 1-13 Rocket 4.2 22:14:44 37° S 22:17:02 75° E 22:22:36 10° NNE
Cosmos 1726 2.4 22:15:33 10° N 22:19:10 54° ENE 22:19:37 50° ESE
Cosmos 1655 Rocket 4.0 22:14:25 10° N 22:20:44 82° E 22:23:33 35° SSE
Cosmos 2237 4.4 22:19:28 38° SSE 22:21:21 54° ESE 22:26:55 10° NE
Cosmos 2219 Rocket 3.8 22:25:00 18° ESE 22:26:06 19° E 22:29:52 10° ENE
Iridium 4 Rocket 3.1 22:24:54 10° N 22:29:18 85° W 22:30:35 48° S
SL-16 R/B 2.1 22:27:38 33° SSW 22:30:19 87° ESE 22:36:02 10° NNE
Cosmos 1733 3.7 22:29:13 10° NNW 22:32:52 45° W 22:33:22 42° WSW
Cosmos 44 Rocket 3.8 22:30:38 10° NW 22:35:00 38° WSW 22:35:37 36° SW
ATLAS CENTAUR R/B 2.8 22:30:56 10° NNW 22:35:37 42° NE 22:39:13 15° ESE
ATLAS 2AS CENTAUR R/B 3.3 22:29:49 10° SW 22:37:34 67° NW 22:45:03 10° NE
Cosmos 1707 4.2 22:37:18 23° E 22:37:43 24° E 22:40:52 10° NE
Cosmos 1470 3.5 22:35:08 10° N 22:38:51 42° ENE 22:39:37 37° ESE
COSMOS 2428 4.4 22:37:38 16° ESE 22:38:59 17° E 22:42:34 10° ENE
RESURS DK-1 3.8 22:36:47 15° WSW 22:39:42 34° NW 22:43:29 10° NNE
ADEOS Rocket 2.8 22:40:53 37° SSE 22:43:11 85° ENE 22:49:05 10° NNW
USA 267 3.3 22:40:37 32° SSE 22:43:38 58° SW 22:50:05 10° WNW
Meteor 1-22 Rocket 4.3 22:42:17 10° N 22:48:09 80° ENE 22:50:43 36° SSE
PSLV R/B 4.3 22:44:22 10° NNE 22:48:28 41° E 22:49:15 37° SE
Okean 1-7 3.3 22:54:08 44° SW 22:55:19 63° WNW 22:59:42 10° N
GENESIS II 4.4 22:55:49 46° WSW 22:56:49 69° NW 23:00:46 10° NE
Cosmos 923 Rocket 4.3 22:52:22 10° NNW 22:57:34 54° WSW 22:59:07 40° SSW
Cosmos 372 Rocket 4.5 22:57:29 37° SE 22:58:45 45° ESE 23:03:39 10° NE
Cosmos 1703 Rocket 3.9 23:00:19 41° SW 23:01:36 59° WNW 23:06:00 10° N
Cosmos 2360 Rocket 2.1 23:00:22 40° SSW 23:02:28 76° ESE 23:08:08 10° NNE
ISS -1.3 23:00:15 10° W 23:00:55 14° W 23:00:55 14° W
Cosmos 1242 Rocket 3.7 23:00:33 10° N 23:03:54 34° ENE 23:04:40 31° E
Okean 2 4.4 23:04:11 30° ESE 23:04:54 32° E 23:08:34 10° NNE
Cosmos 1842 3.1 23:06:04 65° SSW 23:06:36 84° WNW 23:10:31 10° N
Cosmos 1818 3.5 23:01:07 10° NW 23:06:38 89° ENE 23:09:12 33° SE
Cosmos 2263 Rocket 4.2 23:06:51 10° WNW 23:09:25 13° W 23:10:59 12° WSW
Cosmos 2242 Rocket 3.9 23:09:15 43° SW 23:10:34 63° WNW 23:15:08 10° N
STPSAT 2 (USA 217) 4.5 23:10:36 53° S 23:11:36 80° ESE 23:16:07 10° NNE
ASTEX 1 3.5 23:08:29 10° NNE 23:13:22 63° E 23:14:54 41° SSE
ATLAS 3B R/B 3.4 23:06:45 10° NW 23:13:37 43° WSW 23:16:23 32° SSW
Cosmos 1908 4.4 23:10:47 10° N 23:14:15 33° ENE 23:15:21 28° ESE
Cosmos 2278 Rocket 3.8 23:09:38 10° NNW 23:14:44 32° NE 23:19:47 10° ESE
Cosmos 1782 Rocket 4.0 23:10:36 10° NNW 23:14:48 49° W 23:15:37 42° SW
NOSS 3-1 (C) 4.1 23:07:35 10° NW 23:14:52 82° NE 23:23:32 10° SE
Cosmos 1937 Rocket 3.4 23:13:31 43° SSW 23:15:19 84° ESE 23:20:37 10° NNE
ALOS 2 3.8 23:15:18 28° WSW 23:16:04 29° W 23:19:56 10° NNW
NOSS 2-1 (E) 4.0 23:15:19 30° W 23:16:18 39° NW 23:19:31 10° NNE
Cosmos 1238 Rocket 3.5 23:14:09 10° N 23:16:50 30° ENE 23:16:56 30° E
SL-16 R/B 4.5 23:12:47 10° ESE 23:17:34 24° NE 23:22:23 10° N
Cosmos 2151 Rocket 4.2 23:13:24 10° N 23:17:41 47° ENE 23:19:15 32° SE
SL-08 ROCKET BODY 4.3 23:12:00 10° N 23:17:57 86° W 23:20:23 38° S
Cosmos 2112 Rocket 4.2 23:13:06 10° NNW 23:18:20 56° WSW 23:19:51 41° SSW
In-Cosmos 22 4.5 23:17:33 36° SSE 23:19:42 58° E 23:25:07 10° NNE
Cosmos 1680 Rocket 4.0 23:15:59 10° NNW 23:21:03 46° WSW 23:22:23 37° SW
Okean 2 Rocket 3.4 23:18:32 10° N 23:23:02 62° ENE 23:24:32 39° SE
Okean 3 4.5 23:26:58 30° WSW 23:28:10 37° WNW 23:32:07 10° N
Cosmos 2333 Rocket 2.2 23:26:56 39° S 23:29:01 70° ESE 23:34:42 10° NNE
Cosmos 1900 4.3 23:27:26 44° SSW 23:29:02 75° SE 23:34:11 10° NE
ERS-2 3.9 23:28:39 10° N 23:31:36 24° WNW 23:32:44 20° W
Cosmos 2322 3.9 23:32:07 37° S 23:34:11 58° ESE 23:39:49 10° NE
Cosmos 1898 Rocket 4.1 23:35:22 27° WSW 23:38:01 51° WNW 23:43:14 10° NNE
Cosmos 2322 Rocket 3.1 23:34:57 19° WSW 23:38:38 44° NW 23:44:01 10° NNE
Cosmos 1300 Rocket 3.9 23:35:08 10° NNW 23:39:20 50° W 23:40:11 43° SW
Sich 1 Rocket 3.5 23:36:35 10° NNW 23:40:58 72° W 23:42:02 49° SSW
Resurs 1-4 Rocket 3.7 23:42:20 10° NE 23:46:36 25° E 23:49:28 16° SE
USA 215 4.0 23:43:30 10° ENE 23:49:50 54° NNW 23:56:10 10° W
Cosmos 1461 3.0 23:46:16 10° NW 23:50:24 71° NE 23:52:53 24° SE
Cosmos 1844 Rocket 3.7 23:47:14 10° NW 23:51:54 28° WSW 23:53:02 26° SW
Gblst 52 Del rocket 4.1 23:49:00 25° SW 23:52:37 73° SSE 23:58:10 10° ENE
Cosmos 1726 4.4 23:52:03 10° WNW 23:53:41 13° W 23:53:54 13° W
